sat.trackr.live / text

‹ back to catalog

STARLINK-31620

NORAD 59460 · 2024-068F

PAYLOAD ACTIVE UNKNOWN

§ Identity

Operator
Country
US
Launch date
2024-04-10
Launch site
AFETR
Launch vehicle
Mass (kg)
RCS (m²)

Purposes: comms

External: N2YO · Heavens-Above · Gunter

§ Orbital elements

Epoch: 2026-09-21T14:14:24.426528Z

Period
94.27 min
Inclination
43.0037°
Eccentricity
0.0000918
Mean motion
15.27582938 rev/d
Perigee alt
482.4 km
Apogee alt
483.7 km
Semi-major
6,861.2 km
B*
2.6205e-5
RAAN
4.7003°
Arg perigee
277.5456°
Mean anomaly
82.5291°
Rev number
13,852

§ Raw data

STARLINK-316201 59460U 24068F   26264.59333827  .00000459  00000+0  26205-4 0  99902 59460  43.0037   4.7003 0000918 277.5456  82.5291 15.27582938138527

JSON: /api/v1/satellites/59460 · /tle

For live sub-satellite position, see the globe view (requires WebGL).

§ Visibility from observer

Set your observer location to see the next 7 days of passes ≥ 10°. The values pass through the URL so the page stays shareable.

No JS? Fill the form by hand. The geolocation button needs JavaScript.